Tracking 34719 objects as of 12-Jul-2026
HD Live streaming from Space Station
objects crossing your sky now

QIANFAN-177

Track QIANFAN-177 now!
10-day predictions
QIANFAN-177 is classified as:


NORAD ID: 69394
Int'l Code: 2026-124N
Perigee: 889.6 km
Apogee: 891.6 km
Inclination: 89.0 °
Period: 102.6 minutes
Semi major axis: 7261 km
RCS: Unknown
Launch date: June 4, 2026
Source: People's Republic of China (PRC)
Launch site: Taiyaun Space Center, China (TSC)
Your satellite tracking list
Your tracking list is empty




NASA's NSSDC Master Catalog

Two Line Element Set (TLE):
1 69394U 26124N   26191.91960469 -.01970746  00000-0 -13654+1 0  9994
2 69394  88.9985 359.3370 0001344  96.1296 264.0038 14.02994754  5187
Source of the keplerian elements: AFSPC